Total_Precipitation_Accumulation
0.02 0.01 0.01 0.01 0.02 0.06 0.11 0.15 0.18 0.20 0.20 0.20 0.17 0.15 0.12 0.12 0.15 0.18 0.21 0.27 0.33 0.42 0.51 0.51 0.50 0.62 0.69 0.65 0.63 0.64 0.68 0.74 0.73 0.69 0.83 0.87 0.76 0.57 0.49 0.51 0.52 0.53 0.44
0.00 0.00 0.00 0.00 0.00 0.01 0.03 0.08 0.14 0.20 0.21 0.21 0.20 0.17 0.12 0.10 0.12 0.14 0.16 0.21 0.29 0.39 0.55 0.71 0.71 0.66 0.65 0.64 0.63 0.64 0.70 0.81 0.82 0.73 0.78 0.86 0.82 0.71 0.60 0.52 0.45 0.46 0.49
0.00 0.00 0.00 0.00 0.01 0.01 0.01 0.01 0.04 0.10 0.16 0.19 0.19 0.18 0.16 0.14 0.13 0.11 0.12 0.15 0.19 0.25 0.38 0.61 0.80 0.93 0.85 0.67 0.58 0.56 0.64 0.78 0.87 0.83 0.83 0.95 0.98 0.88 0.72 0.56 0.46 0.43 0.42
0.00 0.00 0.00 0.01 0.02 0.03 0.03 0.03 0.03 0.04 0.09 0.14 0.18 0.20 0.18 0.16 0.14 0.13 0.14 0.15 0.16 0.19 0.26 0.36 0.49 0.69 0.86 0.91 0.78 0.65 0.64 0.71 0.79 0.84 0.96 1.18 1.21 1.09 0.83 0.66 0.58 0.49 0.44
0.01 0.01 0.01 0.01 0.02 0.03 0.04 0.05 0.06 0.07 0.08 0.13 0.19 0.21 0.20 0.18 0.13 0.14 0.17 0.15 0.17 0.18 0.20 0.25 0.28 0.36 0.49 0.64 0.76 0.81 0.78 0.73 0.78 0.86 1.09 1.51 1.54 1.29 0.92 0.73 0.67 0.64 0.54
0.01 0.02 0.02 0.03 0.04 0.05 0.05 0.06 0.07 0.09 0.12 0.15 0.19 0.24 0.24 0.17 0.12 0.11 0.13 0.17 0.21 0.25 0.26 0.26 0.23 0.22 0.25 0.35 0.47 0.61 0.75 0.79 0.80 0.86 1.06 1.38 1.54 1.43 1.17 0.97 0.76 0.63 0.58
0.01 0.02 0.03 0.05 0.06 0.07 0.07 0.09 0.11 0.14 0.17 0.18 0.20 0.27 0.31 0.31 0.21 0.13 0.10 0.15 0.21 0.26 0.32 0.35 0.24 0.15 0.20 0.25 0.31 0.38 0.47 0.57 0.70 0.79 0.94 1.16 1.45 1.58 1.40 1.05 0.88 0.79 0.64
0.02 0.03 0.04 0.06 0.08 0.10 0.12 0.15 0.19 0.22 0.22 0.22 0.22 0.28 0.37 0.37 0.30 0.21 0.14 0.17 0.23 0.27 0.32 0.35 0.33 0.27 0.26 0.27 0.30 0.30 0.32 0.36 0.43 0.55 0.70 0.94 1.23 1.54 1.66 1.42 1.21 1.07 0.89
0.04 0.06 0.08 0.11 0.14 0.17 0.20 0.24 0.27 0.28 0.26 0.25 0.24 0.28 0.36 0.42 0.36 0.25 0.21 0.23 0.26 0.29 0.32 0.36 0.39 0.36 0.27 0.20 0.25 0.26 0.27 0.30 0.32 0.38 0.50 0.69 0.95 1.25 1.57 1.68 1.40 1.07 0.94
0.10 0.12 0.14 0.19 0.25 0.28 0.32 0.36 0.37 0.37 0.32 0.28 0.24 0.27 0.33 0.44 0.43 0.29 0.25 0.27 0.31 0.35 0.45 0.49 0.44 0.39 0.32 0.20 0.22 0.26 0.25 0.25 0.29 0.30 0.34 0.45 0.62 0.87 1.19 1.37 1.38 1.08 0.86
0.17 0.19 0.21 0.27 0.33 0.34 0.37 0.39 0.41 0.40 0.37 0.35 0.31 0.30 0.33 0.38 0.44 0.33 0.29 0.32 0.37 0.45 0.54 0.63 0.60 0.46 0.33 0.24 0.22 0.25 0.22 0.26 0.30 0.32 0.33 0.39 0.54 0.74 0.92 1.15 1.27 1.17 0.91
0.20 0.22 0.25 0.28 0.29 0.28 0.35 0.38 0.41 0.43 0.40 0.37 0.36 0.34 0.36 0.33 0.32 0.35 0.25 0.24 0.33 0.46 0.59 0.76 0.80 0.64 0.48 0.34 0.27 0.24 0.21 0.22 0.28 0.32 0.33 0.35 0.42 0.55 0.74 0.99 1.19 1.20 1.06
0.23 0.25 0.26 0.25 0.26 0.30 0.36 0.37 0.39 0.41 0.39 0.33 0.30 0.34 0.38 0.38 0.33 0.27 0.22 0.17 0.22 0.40 0.56 0.80 0.90 0.77 0.64 0.50 0.40 0.34 0.28 0.24 0.27 0.28 0.26 0.27 0.32 0.43 0.61 0.91 1.21 1.31 1.23
0.25 0.25 0.24 0.26 0.27 0.33 0.40 0.42 0.44 0.42 0.37 0.31 0.28 0.34 0.37 0.39 0.37 0.37 0.35 0.26 0.25 0.37 0.44 0.58 0.73 0.79 0.73 0.67 0.56 0.45 0.36 0.32 0.30 0.30 0.29 0.32 0.40 0.49 0.60 0.73 1.00 1.20 1.21
0.31 0.29 0.27 0.28 0.31 0.33 0.37 0.40 0.37 0.36 0.30 0.28 0.29 0.37 0.40 0.40 0.34 0.30 0.36 0.38 0.38 0.43 0.44 0.56 0.73 0.85 0.87 0.83 0.80 0.68 0.56 0.49 0.42 0.39 0.43 0.43 0.46 0.51 0.54 0.61 0.78 0.95 0.94
0.37 0.31 0.29 0.29 0.33 0.35 0.35 0.36 0.30 0.21 0.19 0.18 0.19 0.24 0.28 0.25 0.18 0.14 0.19 0.24 0.25 0.28 0.34 0.50 0.67 0.83 0.95 0.98 0.99 0.93 0.80 0.68 0.58 0.55 0.55 0.51 0.49 0.52 0.53 0.54 0.65 0.78 0.81
0.37 0.33 0.29 0.28 0.31 0.31 0.31 0.35 0.38 0.32 0.17 0.13 0.15 0.16 0.19 0.15 0.13 0.14 0.16 0.20 0.19 0.18 0.22 0.39 0.54 0.68 0.85 0.98 1.00 0.95 0.86 0.80 0.76 0.72 0.70 0.65 0.58 0.55 0.57 0.55 0.56 0.67 0.76
0.32 0.31 0.29 0.30 0.31 0.29 0.27 0.29 0.35 0.43 0.40 0.31 0.22 0.17 0.18 0.15 0.18 0.21 0.20 0.21 0.19 0.16 0.19 0.33 0.45 0.58 0.72 0.88 0.93 0.90 0.90 0.90 0.88 0.81 0.81 0.79 0.72 0.63 0.61 0.60 0.56 0.55 0.64
0.29 0.25 0.21 0.21 0.24 0.26 0.27 0.29 0.32 0.37 0.43 0.49 0.41 0.25 0.22 0.20 0.28 0.35 0.27 0.26 0.28 0.26 0.26 0.31 0.38 0.48 0.63 0.78 0.89 0.93 0.94 0.90 0.86 0.86 0.86 0.84 0.83 0.74 0.65 0.63 0.64 0.61 0.59
0.22 0.21 0.15 0.12 0.15 0.22 0.28 0.31 0.31 0.35 0.42 0.51 0.48 0.32 0.28 0.30 0.45 0.55 0.41 0.41 0.42 0.38 0.38 0.41 0.42 0.46 0.60 0.74 0.85 0.93 0.97 0.92 0.85 0.85 0.86 0.85 0.83 0.78 0.68 0.66 0.70 0.66 0.55
0.17 0.15 0.13 0.09 0.14 0.23 0.28 0.29 0.30 0.37 0.45 0.54 0.50 0.33 0.28 0.36 0.59 0.69 0.62 0.60 0.58 0.53 0.51 0.47 0.41 0.43 0.54 0.67 0.75 0.84 0.93 0.91 0.82 0.79 0.83 0.88 0.81 0.75 0.70 0.69 0.70 0.73 0.66
0.16 0.15 0.14 0.14 0.21 0.26 0.25 0.31 0.41 0.48 0.52 0.57 0.52 0.39 0.37 0.48 0.67 0.73 0.67 0.65 0.63 0.59 0.52 0.47 0.41 0.42 0.50 0.59 0.64 0.72 0.84 0.85 0.79 0.75 0.79 0.86 0.83 0.75 0.71 0.69 0.69 0.74 0.75
0.21 0.21 0.18 0.20 0.27 0.26 0.28 0.36 0.48 0.53 0.54 0.56 0.55 0.54 0.55 0.63 0.68 0.71 0.67 0.62 0.58 0.57 0.55 0.53 0.50 0.48 0.52 0.59 0.60 0.63 0.74 0.74 0.71 0.71 0.76 0.82 0.81 0.76 0.73 0.68 0.65 0.68 0.71
0.17 0.20 0.20 0.19 0.21 0.25 0.30 0.34 0.39 0.44 0.46 0.48 0.50 0.52 0.54 0.57 0.61 0.61 0.59 0.58 0.58 0.57 0.57 0.59 0.56 0.53 0.56 0.59 0.59 0.59 0.66 0.65 0.61 0.63 0.69 0.75 0.76 0.74 0.72 0.68 0.64 0.64 0.69
0.18 0.21 0.21 0.22 0.21 0.23 0.28 0.33 0.39 0.43 0.47 0.47 0.47 0.49 0.52 0.52 0.55 0.59 0.59 0.58 0.56 0.55 0.54 0.55 0.54 0.56 0.55 0.51 0.52 0.54 0.57 0.53 0.50 0.53 0.64 0.73 0.73 0.70 0.68 0.65 0.63 0.66 0.71
0.19 0.23 0.28 0.31 0.30 0.28 0.31 0.38 0.43 0.43 0.45 0.44 0.47 0.50 0.55 0.57 0.56 0.58 0.59 0.57 0.55 0.55 0.52 0.52 0.52 0.48 0.47 0.46 0.44 0.45 0.43 0.41 0.42 0.46 0.53 0.62 0.68 0.67 0.66 0.66 0.65 0.69 0.71